User: anonymous   Login
Location: ?????????
(38.0736°N, 23.2119°E)
Time: 04:05:28
(UTC+00:00)
Language:

Sich 1 Rocket - Orbit

View from above orbital plane
View from above orbital plane
View from above satellite
View from above satellite

Ground track
Ground track

The orbit data is extracted from the following two-line orbital elements,

1 23659U 95046C   24164.93192917  .00000684  00000-0  88373-4 0  9998
2 23659  82.5301  96.0153 0025725 157.7514 271.7254 14.79306031551419
Epoch (UTC): 12 June 2024 22:21:58
Eccentricity: 0.0025725
inclination: 82.5301°
perigee height: 613 km
apogee height: 649 km
right ascension of ascending node: 96.0153°
argument of perigee: 157.7514°
revolutions per day: 14.79306031
mean anomaly at epoch: 271.7254°
orbit number at epoch: 55141

The dashed part of the orbit path shows where the satellite is in the earth's shadow,  

DLR